Last server records
Pro Nub

Map info

clintmo_falling
clintmo_falling ( Xtreme-Jumps) 13.10.2005
Xtreme-Jumps record CiNdOR^ - 01:17.00

KZ-Rush record JamBawa - 01:19.97

Mapper  clintmo

Pro-record ScrAw - 01:21.69

Nub-record ScrAw - 01:30.17 (1 cp / 2 gc)

Difficulty Average

Length Short

Download map clintmo_falling (568,42 KB)
Installation instructions

Map Installation Guide

  1. Download map archive clintmo_falling.zip
  2. Unzip the archive in any convenient folder
  3. Open cstrike folder, which is located in the place of Counter-Strike installation. In case of Steam version the path looks like Steam\steamapps\common\Half-Life
  4. Copy all files from the folder, where you unzipped the archive, to cstrike folder according to the following table (if your system asks about replacing files, choose Copy and Replace):
maps/clintmo_falling.bsp>>maps/clintmo_falling.bsp

Community records

# Player Time Difference Date  
1 JamBawa 01:19.97   13.06.17
2 ScrAw 01:21.07 -00:01.10 23.06.17
3 Creep 01:30.52 -00:10.55 24.03.17
4 fucktehworld 02:29.33 -01:09.36 18.02.17
5 tasi 02:47.33 -01:27.36 25.09.19
6 DON_SIMON 02:51.99 -01:32.02 05.11.20
7 Coregore43 02:55.25 -01:35.28 24.03.17
# Player Time Date Weapon
1 ScrAw 01:21.69 08.05.17
2 JamBawa 01:21.86 08.05.17
3 SlasHeR 02:25.68 11.02.17
4 Aspire333 02:30.43 03.03.20
5 flajok 02:31.15 29.05.19
6 PuKiS 02:31.47 04.09.17
7 doz 02:32.03 29.05.19
8 erdik 02:32.13 02.03.17
9 Roseanne_Park. 02:32.69 06.06.18
10 AeonFlux 02:32.86 18.09.19
11 xenge 02:33.61 08.05.17
12 ds 02:33.89 26.05.20
13 Apache 02:34.14 26.03.17
14 shurik 02:34.20 03.03.18
15 sperik` 02:35.58 22.05.19
16 [WS] 02:35.99 22.05.19
17 Creep 02:36.71 20.03.17
18 dislike 02:38.16 24.08.17
19 LSHHHiohhho 02:38.64 29.05.19
20 Johnny_Dedd 02:38.75 10.06.20
21 sekai 02:38.91 24.10.20
22 SShooolD 02:39.03 11.11.18
23 EcLiPSe 02:40.17 30.05.18
24 inj3ct0r. 02:41.97 12.01.20
25 fantastikaaaaaaa 02:43.32 02.04.18
26 Igor_S. 02:43.70 08.05.17
27 fucktehworld 02:43.73 14.12.16
28 trololo 02:46.51 12.01.20
29 PlayFoRmE 02:46.64 22.05.19
30 Tihonya 02:46.72 24.02.18
31 Penguin 02:47.17 02.06.18
32 Acamas 02:48.04 24.10.20
33 liL_piglets 02:48.77 28.07.19
34 lethal_tempo 02:49.08 22.11.18
35 stenLY 02:49.96 22.05.19
36 vadimzoredd 02:50.91 22.11.18
37 zepp_ 02:51.51 08.05.17
38 k1ever 02:51.84 09.11.18
39 Okazys 02:52.41 24.10.20
40 Master_Me4a 02:52.46 22.11.18
41 snegg 02:52.48 03.03.18
42 theend 02:53.77 08.05.17
43 Taewii 02:54.21 30.10.18
44 Bu3T 02:54.68 30.10.18
45 ZVD 02:57.52 24.10.20
46 Yoyo ^_^ 02:59.62 21.06.17
47 Master_Me4a 03:01.29 04.07.19
48 Zickkk 03:01.47 02.06.18
49 DON_SIMON 03:01.51 24.07.19
50 lavash 03:01.85 04.09.17
51 nema povlacenja 03:03.19 02.03.17
52 Player 03:05.85 24.02.18
53 cmaster 03:09.96 27.02.19
54 jigsaw 03:13.66 15.10.17
55 Дно_#_W1nS 03:14.10 17.02.18
56 mistik 03:14.71 02.04.18
57 gf97 03:15.12 24.10.20
58 BarnabusWizardcock 03:26.78 29.05.19
59 RayajiN 03:27.98 22.04.18
60 Shinzo 03:33.11 11.11.20
61 Seth 03:33.87 10.06.20
62 iNsprate #Strafeace 03:37.20 07.07.18
63 NeffeX 03:52.46 03.07.18
# Player Time Date Weapon
1 gf97 03:31.97 24.10.20
2 trololo 03:45.94 24.10.20
# Player Time Date Weapon CP GC
1 ScrAw 01:30.17 08.05.17 1 2
2 QueenAngel 01:50.04 12.01.20 3 2
3 blackfury 02:11.75 05.10.17 8 6
4 Computer_Controlled 02:18.79 08.05.17 6 8
5 I_love_life 02:27.23 22.11.18 9 5
6 [WS] 02:29.55 04.07.19 5 7
7 xenge 02:36.41 08.05.17 4 2
8 Apache 02:40.61 26.03.17 23 1
9 Johnny_Dedd 02:41.24 10.06.20 14 1
10 ChKzN! 02:43.61 22.03.19 9 2
11 MaVo^ 02:45.79 22.11.18 4 2
12 sook 02:46.50 02.03.17 16 2
13 Penguin 02:46.95 24.10.20 1 1
14 shurik 02:48.27 03.03.18 4 1
15 fucktehworld 02:48.76 14.12.16 17 3
16 kat9 02:49.36 13.01.17 13 1
17 PlayFoRmE 02:50.13 22.05.19 21 3
18 Shinzo 02:51.54 15.10.17 18 2
19 LSHHHiohhho 02:51.90 29.05.19 23 1
20 SiFon4ik 02:52.95 13.01.17 15 1
21 theend 02:54.36 08.05.17 21 3
22 SKY-RIM_-_Cognition_Zero 02:55.43 03.07.18 12 6
23 lethal_tempo 02:57.80 22.11.18 7 1
24 Master_Me4a 02:58.52 22.11.18 22 3
25 6370 02:58.54 15.10.17 24 2
26 onset` 02:59.55 24.01.17 22 260
27 p1aN1st 03:00.86 24.10.20 34 4
28 zepp_ 03:03.42 08.05.17 6 1
29 RoN` 03:03.87 02.03.17 16 4
30 bORN2MAKEPORN 03:04.09 03.07.18 19 1
31 erdik 03:04.32 02.03.17 5 9
32 Bu3T 03:04.98 16.11.18 8 5
33 samra 03:08.95 04.07.19 14 1
34 mistik 03:10.24 08.05.19 10 2
35 Roseanne_Park. 03:13.25 06.06.18 22 6
36 ha 03:15.68 18.04.17 25 4
37 sperik` 03:16.73 22.05.19 6 3
38 Viper 03:17.79 11.02.17 8 3
39 cadence 03:18.44 10.06.20 27 6
40 xepoH4er 03:18.95 18.04.17 38 4
41 Player 03:19.01 30.10.18 11 5
42 gggggggggg 03:19.74 08.01.17 15 5
43 FunTopia 03:19.86 24.10.20 23 5
44 limited_Edition 03:20.76 08.05.17 26 5
45 flores 03:20.78 22.03.19 23 8
46 chij 03:20.98 03.07.18 4 12
47 BLORIK 03:21.28 08.05.17 17 15
48 paradox 03:21.51 29.09.19 25 11
49 who 03:22.79 24.10.20 5 31
50 ROFL 03:22.97 22.04.18 4 7
51 Conquest_l_Okich__R 03:23.77 22.03.19 33 3
52 Fctrll 03:24.69 16.09.16 29 4
53 zxcadqe 03:25.13 22.11.18 16 6
54 mol 03:25.53 04.07.19 17 7
55 thienlao111 03:28.34 04.10.19 16 12
56 Simpa_43dВВd 03:28.50 22.11.18 7 5
57 Seth 03:28.71 26.05.20 27 7
58 bumbum 03:29.47 15.02.17 15 7
59 berserker 03:30.97 30.10.18 6 4
60 VMz` 03:31.13 26.03.17 21 9
61 nema povlacenja 03:32.63 02.03.17 17 21
62 RayajiN 03:33.86 17.02.18 13 4
63 ANger 03:34.15 22.03.19 7 9
64 zypz 03:34.45 22.03.19 7 14
65 41_Squad___LT_3861___Ceeeeeeb! 03:35.18 10.06.20 23 6
66 wraightofknight 03:35.93 12.01.20 5 3
67 WhereIsMyPanda 03:39.60 17.02.18 6 10
68 Gifted 03:40.51 10.06.20 18 8
69 tosha 03:41.43 08.05.17 33 9
70 y4en1k_kocmonafta_D 03:42.02 08.05.17 65 7
71 L1VE. 03:42.07 20.05.17 17 13
72 kIT 03:46.57 04.07.19 8 8
73 doz 03:46.77 29.05.19 2 4
74 DragKedja 03:47.59 04.07.19 2 9
75 Silk_Road 03:48.56 03.07.18 17 10
76 sa7anFTW 03:49.36 10.06.20 22 13
77 Harley 03:52.04 04.07.19 26 11
78 .h4m 03:52.23 04.07.19 7 7
79 Chaos_Dunk! 03:52.93 11.02.17 27 14
80 cenzura 03:54.32 09.01.17 17 12
81 FalosDDR 04:00.14 17.06.17 7 10
82 Ace7_Kreedz 04:00.33 11.11.17 16 16
83 Tihonya 04:02.36 08.05.17 18 20
84 Jared 04:04.34 18.04.17 16 16
85 SaVy777 04:06.69 18.09.19 23 18
86 The_Birthday_Massacre 04:06.99 04.09.17 22 28
87 hwmnbn 04:08.09 22.05.19 42 26
88 mls 04:09.41 04.10.19 31 21
89 nokia 04:12.43 22.03.19 57 22
90 pe4enbki 04:12.92 08.05.17 20 12
91 HEBPEDUMKA!` 04:17.33 15.10.17 21 16
92 wwq 04:18.46 22.05.19 11 23
93 Kapitan_panika 04:18.53 20.06.16 22 30
94 Poowlik 04:22.60 03.03.18 7 17
95 Taewii 04:22.69 24.02.18 21 24
96 mishko 04:23.54 02.06.18 16 12
97 estrom 04:25.21 22.05.19 23 13
98 M. 04:27.24 13.01.17 19 17
99 snegg 04:27.31 09.09.19 19 23
100 [qwerty_team]_Blood_С 04:28.09 24.10.20 27 12
101 oRR 04:30.31 20.05.17 11 19
102 Барсякула_3 04:30.70 22.11.18 19 510
103 taipan 04:33.86 22.05.19 25 23
104 therealuser 04:36.02 18.04.17 21 19
105 stenLY 04:36.26 22.05.19 22 21
106 lavash 04:36.59 21.06.17 16 13
107 Tsugyn 04:36.84 16.01.17 19 17
108 d-_-b[cody_loh_s_softom] 04:38.10 08.01.17 12 17
109 ScotoBaza 04:44.78 02.06.18 58 39
110 SneG^_^ 04:49.31 26.03.17 26 13
111 Reebok 04:51.20 11.02.17 26 22
112 atopsgaming 04:52.45 13.07.20 20 15
113 Flajer 04:52.48 05.03.20 16 25
114 BarnabusWizardcock 04:53.61 22.05.19 20 15
115 brodyaga 04:56.93 03.03.18 7 43
116 [TW]_enDDDDDDDDDDDDDDDDDD 04:57.84 11.02.17 21 170
117 mrp 04:58.12 29.05.19 18 24
118 Jekyll 05:04.67 24.10.20 14 38
119 dIsARm. 05:08.49 18.04.17 17 16
120 Lel 05:12.79 29.05.19 26 15
121 KaKasHi_~~~` 05:18.59 02.06.18 6 20
122 NURSULTAN 05:19.92 30.10.18 28 28
123 Смайлик_=) 05:20.86 08.05.17 39 23
124 D1mar1K_-_^ 05:22.44 08.05.17 11 26
125 Capsize 05:23.41 17.06.17 34 22
126 bruh 05:25.50 13.07.20 30 22
127 [D]Blood_C 05:26.80 09.09.19 12 22
128 Дашка_seXуашка 05:27.28 11.02.18 36 54
129 None 05:29.32 08.05.17 10 20
130 Reptile 05:29.51 04.07.19 5 1256
131 Радооость 05:34.27 04.09.17 20 76
132 space 05:38.67 23.02.18 16 24
133 l_war_l 05:40.95 22.03.19 38 19
134 tvoi_zhirnii_povelitel 05:41.06 26.05.20 5 27
135 puk 05:49.46 09.11.18 13 20
136 Bunny^ 05:49.90 13.11.17 40 30
137 ThUnDeR 05:50.47 10.06.20 9 33
138 toyzz 05:58.55 20.05.17 24 56
139 hak 06:03.05 04.09.17 41 20
140 LOV3GHOST 06:09.74 02.03.17 28 20
141 sLow 06:09.80 24.10.20 19 33
142 ~DoK_____# 06:15.13 08.05.17 34 28
143 Slonik 06:21.72 22.11.18 6 37
144 PurpleHunt 06:30.81 08.05.17 29 48
145 XnayiL 06:34.72 03.03.18 16 25
146 php_echo_Hello_World_ 06:38.63 22.05.19 38 35
147 молчи 06:41.22 05.03.20 24 511
148 KoJI6acep 06:48.88 21.06.17 17 12
149 just_Player 06:49.90 02.03.17 29 38
150 g0su 06:50.95 22.03.19 17 30
151 Blood2210 07:00.26 02.03.17 27 25
152 iNsprate #Strafeace 07:09.17 07.07.18 10 18
153 hhs.Pro[15] 07:31.20 13.01.17 72 67
154 Player 07:47.58 26.03.17 29 59
155 `kz_youth 07:50.50 10.06.20 25 2337
156 kankretnii 08:17.69 25.12.16 16 39
157 counter_strike 08:34.29 22.03.19 40 74
158 Vitasik 08:53.12 18.09.19 15 61
159 ultrasi 09:05.13 22.11.18 9 35
160 [M4A1_USP]_Дедулешка 09:51.70 08.05.17 21 39
161 ALEJANDRO13 10:16.19 28.07.19 30 100
162 10047.1jeg 10:20.71 17.02.18 29 83
163 FFL^_[tm]_Shaylin 11:16.59 22.05.19 20 65
164 KAMERU_VIRUBAI 12:03.90 11.11.17 24 80
165 BPMBBD 12:05.65 11.11.17 18 104
166 Mirnaya 13:37.70 04.07.19 29 95
167 Kto-to 16:51.52 10.06.20 36 95
168 wDwad 26:22.85 03.03.18 24 191
# Player Time Date Weapon CP GC
1 DON_SIMON 84:21.52 26.10.20 1111 1111123
# Player Time Date Weapon CP GC
1 DON_SIMON 04:40.47 24.10.20 59 20

Other maps with same difficulty

Other maps from Xtreme-Jumps

Other maps from mapper clintmo